Вернуться в каталог

THOR ABLESTAR DEB

АктивенLEO
NORAD 324·DEBRIS·🇺🇸 United States

Запущен Jun 29, 1961 с Cape Canaveral Space Force Station

Loading…

Ближайшие Пролёты (ближайшие 24 часа)

TLE

СвежийSource: Space-Track

Эпоха: Sep 9, 2026, 01:23 UTC

1 00324U 61015DA  26252.05818263  .00000481  00000-0  29121-3 0  9993
2 00324  66.8695 178.9807 0071229 320.7877  38.8065 14.13470047334928

Отслеживайте THOR ABLESTAR DEB в реальном времени с AllMySat

Download on the App Store